Wind_Speed
14 13 13 14 14 15 15 15 15 16 16 16 16 16 16 15 15 15 15 15 15 15 16 16 16 17 17 18 19 19 20 20 21 21 21 20 20 20
15 15 14 14 14 15 15 15 16 16 16 16 16 16 16 16 16 15 15 15 15 16 16 16 16 17 17 18 19 19 19 20 21 21 21 21 21 21
15 15 15 15 15 16 16 16 16 16 16 16 16 16 15 16 17 17 16 16 16 17 17 17 17 17 18 18 19 19 20 20 20 21 22 22 23 23
16 16 16 16 16 16 17 17 17 17 17 17 17 17 16 16 17 17 18 18 18 18 18 18 18 18 19 19 19 20 21 22 22 22 23 23 23 23
17 17 17 18 18 18 18 18 18 18 18 18 18 19 18 18 18 18 18 18 18 19 19 19 19 19 19 19 20 20 21 22 23 23 23 24 24 24
18 18 19 19 19 18 18 18 18 19 19 19 19 19 19 19 19 18 19 19 19 19 19 20 20 20 20 20 20 21 21 21 22 23 24 24 25 24
20 19 19 19 19 19 19 19 19 19 19 20 20 20 20 20 20 20 20 20 20 20 20 21 21 20 21 21 21 22 22 22 23 24 25 25 26 26
20 20 21 20 20 20 20 19 20 20 20 20 20 20 21 21 21 21 21 21 21 21 22 22 22 22 22 22 23 23 23 23 24 25 25 26 27 28
21 21 21 21 21 21 20 20 20 20 20 20 20 21 21 22 22 22 22 22 22 22 22 23 23 23 24 24 25 25 25 25 25 26 26 27 28 29
21 21 21 20 21 21 21 21 20 20 20 21 21 22 22 23 23 23 23 23 23 23 23 23 24 24 25 25 25 26 26 26 27 27 27 28 28 29
23 22 22 22 22 22 22 22 22 22 22 22 22 23 23 24 24 24 24 25 24 24 24 24 25 25 26 26 26 27 27 28 28 29 29 29 30 30
24 24 23 23 23 23 23 23 23 24 24 24 24 24 25 25 25 25 25 25 26 25 26 26 26 26 27 27 28 28 28 28 29 29 30 30 31 31
25 24 24 24 24 24 24 24 24 25 25 25 25 25 25 25 26 26 27 27 27 27 27 27 28 28 28 28 28 29 28 28 29 29 30 31 31 31
26 25 25 25 25 25 25 26 26 26 26 25 25 25 26 26 27 27 27 28 28 28 28 28 27 28 28 28 27 28 28 29 30 30 31 31 30 30
27 27 27 27 26 25 26 26 26 26 26 26 26 25 26 26 26 27 27 27 27 27 27 27 27 27 27 27 28 28 29 29 30 30 30 30 31 31
27 27 27 27 26 26 26 27 26 27 27 27 27 27 27 27 27 28 27 27 28 28 28 28 28 28 29 29 29 30 30 30 31 31 32 32 32 32
28 28 28 28 28 27 28 28 28 28 28 28 28 28 28 28 28 28 28 29 29 29 29 29 29 29 30 30 30 31 31 32 33 33 34 33 34 34
29 29 29 29 29 29 29 29 30 29 29 29 29 29 28 28 29 29 28 29 29 29 29 29 30 31 31 31 31 32 32 33 33 34 34 34 34 34
30 30 29 29 29 29 29 30 30 31 31 30 30 30 30 30 30 30 30 30 30 30 30 30 31 32 33 33 33 33 34 34 35 35 35 35 35 35
31 30 30 30 30 30 30 30 30 30 31 31 31 32 31 31 31 31 31 31 31 31 31 31 32 33 33 33 33 34 35 35 35 35 35 35 36 36
32 32 32 31 31 31 31 31 31 31 31 31 31 32 32 32 32 32 33 32 33 33 33 33 33 33 33 34 34 34 35 36 36 36 36 36 36 36
33 33 32 32 32 31 31 31 31 31 31 31 32 32 32 32 32 33 33 33 34 34 34 34 34 34 34 34 35 35 35 36 36 37 37 37 37 37
34 32 32 32 32 32 31 31 31 31 31 31 31 31 31 31 32 32 32 32 33 34 34 34 35 35 35 35 36 36 36 36 37 37 37 38 38 38
Wind_Direction
279 279 278 277 274 272 271 270 269 267 264 263 264 266 266 266 267 268 267 263 259 258 257 257 257 256 256 255 255 257 256 256 254 253 252 253 254 255
280 281 280 280 278 275 274 274 272 268 266 266 265 267 266 268 269 267 264 262 260 260 259 260 260 259 259 260 259 258 257 256 255 254 254 256 256 257
278 279 279 279 278 277 276 275 273 270 268 267 267 266 266 267 266 265 265 262 261 262 261 262 262 262 262 261 261 260 258 258 257 255 254 256 257 257
276 277 278 278 280 279 276 275 273 272 269 266 267 266 265 265 264 266 266 263 261 262 262 262 263 263 264 265 262 261 260 260 259 257 257 257 258 258
275 275 276 277 279 279 277 275 273 271 269 266 267 267 266 266 265 265 265 264 264 263 263 263 264 264 265 265 262 261 262 263 263 261 260 259 258 259
275 274 275 276 278 280 279 275 272 270 269 268 267 267 266 267 268 267 266 266 265 264 264 265 265 265 266 266 264 264 265 265 263 262 261 261 260 259
276 274 275 276 277 278 278 276 272 269 267 267 266 265 265 265 266 268 269 268 267 267 267 267 265 265 266 267 268 268 268 267 264 264 264 261 260 260
278 276 273 274 275 275 275 275 272 270 267 267 265 266 266 266 266 267 269 269 268 267 268 268 267 265 265 266 268 268 267 268 267 266 265 264 262 261
276 276 273 272 272 272 272 273 273 271 270 267 267 268 267 266 267 267 268 269 269 269 268 268 269 269 267 268 268 269 269 270 270 270 267 267 265 263
275 274 274 272 271 270 270 271 271 272 271 270 268 267 266 266 269 269 266 266 268 269 269 269 269 269 270 270 271 273 272 270 271 272 271 269 268 267
275 274 272 271 271 272 271 271 271 272 272 270 269 268 268 268 268 269 267 266 266 269 270 271 271 271 271 271 272 273 273 273 273 273 273 272 271 269
274 274 274 272 271 272 272 272 271 271 271 270 268 269 269 269 268 268 268 267 267 268 269 270 271 271 271 272 272 272 273 273 273 273 274 274 273 272
272 274 274 273 270 270 272 272 271 269 270 270 269 269 269 269 269 268 268 268 267 268 269 270 271 271 272 272 272 272 272 272 273 274 274 275 274 273
272 274 274 274 271 271 271 271 271 269 268 270 270 269 269 270 270 269 269 269 269 269 270 270 271 272 273 273 272 272 272 274 275 275 276 277 276 276
271 272 273 273 273 271 272 272 272 270 268 269 268 268 269 270 270 270 271 271 270 270 271 271 271 271 271 272 272 272 274 276 278 277 277 278 277 278
272 271 272 273 273 272 272 273 272 271 270 268 267 268 268 269 270 270 271 272 271 271 271 271 271 271 272 273 273 273 274 276 277 277 277 277 278 278
272 272 272 272 272 273 271 271 272 271 270 268 267 267 268 269 270 270 271 272 272 271 271 271 271 272 273 274 275 275 275 276 277 278 278 279 279 279
272 272 272 273 271 271 271 271 271 270 269 268 268 268 268 269 270 271 271 271 271 272 272 273 273 273 273 274 275 276 277 277 277 278 279 279 279 279
273 271 271 273 272 271 271 270 270 269 268 268 269 269 269 269 270 271 271 270 270 271 271 273 274 273 273 275 276 277 278 277 277 278 279 279 278 278
272 271 271 272 272 270 271 270 269 269 269 269 270 269 269 269 270 271 271 270 270 271 272 274 275 276 275 275 277 278 278 278 278 278 278 279 279 278
272 270 270 272 272 270 271 270 269 269 269 269 271 270 269 269 269 271 271 270 271 271 273 274 276 277 277 277 277 277 278 279 279 278 279 279 279 280
271 270 270 272 271 271 269 269 269 269 269 269 271 271 271 270 270 271 272 271 271 271 272 274 276 277 277 278 279 278 278 279 279 279 280 281 280 280
270 270 271 271 270 270 270 269 269 269 269 269 270 270 271 271 272 272 272 272 271 271 272 273 275 276 277 278 279 279 278 278 278 279 280 281 281 281
Height
5791 5791 5790 5790 5789 5789 5789 5789 5789 5789 5789 5789 5789 5789 5789 5789 5789 5788 5788 5788 5788 5788 5788 5788 5788 5788 5789 5789 5790 5790 5791 5792 5792 5793 5794 5795 5796 5797
5787 5786 5786 5785 5785 5785 5785 5785 5784 5784 5784 5784 5784 5784 5784 5784 5784 5784 5783 5783 5784 5783 5783 5784 5784 5784 5784 5784 5785 5785 5785 5786 5787 5788 5789 5790 5791 5792
5782 5782 5781 5781 5780 5780 5780 5780 5780 5780 5780 5780 5779 5779 5780 5780 5779 5779 5779 5779 5779 5779 5779 5779 5779 5779 5779 5779 5779 5779 5780 5781 5782 5783 5784 5784 5785 5786
5778 5777 5777 5776 5776 5775 5775 5775 5774 5775 5775 5775 5775 5775 5775 5775 5775 5774 5774 5774 5774 5774 5774 5774 5774 5774 5774 5774 5774 5774 5775 5775 5776 5777 5778 5779 5779 5780
5773 5772 5772 5771 5771 5770 5769 5769 5769 5769 5769 5769 5769 5769 5770 5770 5770 5770 5769 5769 5769 5769 5769 5769 5769 5769 5769 5769 5769 5769 5769 5769 5770 5770 5771 5772 5773 5773
5767 5766 5766 5766 5765 5764 5764 5763 5763 5763 5763 5764 5764 5764 5764 5764 5764 5764 5764 5764 5764 5763 5763 5763 5763 5763 5763 5763 5763 5763 5763 5763 5763 5764 5764 5765 5766 5767
5761 5760 5760 5760 5759 5758 5758 5757 5757 5757 5757 5758 5758 5758 5758 5758 5758 5758 5758 5758 5758 5757 5757 5758 5758 5758 5757 5757 5757 5757 5757 5757 5757 5757 5757 5757 5758 5759
5755 5754 5754 5753 5753 5752 5752 5751 5751 5751 5751 5751 5752 5752 5752 5752 5752 5752 5752 5752 5752 5752 5751 5751 5751 5751 5751 5751 5751 5750 5750 5750 5750 5750 5750 5750 5750 5751
5748 5748 5747 5747 5746 5746 5745 5745 5745 5745 5745 5745 5745 5745 5745 5745 5745 5745 5745 5745 5745 5745 5744 5744 5744 5744 5744 5744 5743 5743 5743 5743 5742 5742 5742 5742 5742 5742
5742 5741 5741 5740 5740 5739 5739 5739 5739 5738 5738 5738 5738 5738 5738 5738 5738 5738 5738 5738 5738 5737 5737 5737 5737 5736 5736 5736 5736 5735 5735 5734 5734 5734 5734 5734 5734 5734
5735 5734 5734 5733 5733 5732 5732 5732 5732 5732 5731 5731 5731 5731 5731 5731 5731 5731 5731 5731 5731 5730 5730 5730 5730 5729 5728 5728 5727 5727 5726 5726 5726 5726 5725 5725 5725 5725
5727 5726 5726 5726 5725 5724 5724 5724 5724 5724 5724 5724 5724 5723 5723 5723 5723 5723 5723 5723 5723 5723 5722 5722 5722 5721 5720 5720 5719 5718 5718 5717 5717 5717 5716 5716 5716 5715
5719 5719 5718 5718 5717 5717 5716 5716 5716 5716 5716 5716 5716 5716 5715 5715 5715 5715 5714 5714 5714 5714 5714 5713 5713 5712 5712 5712 5710 5710 5709 5709 5708 5708 5707 5707 5706 5706
5711 5711 5711 5710 5709 5709 5708 5708 5708 5708 5708 5708 5708 5708 5707 5707 5707 5706 5706 5706 5705 5705 5705 5704 5704 5703 5703 5702 5702 5701 5701 5700 5699 5699 5698 5697 5696 5696
5703 5702 5702 5702 5701 5701 5700 5699 5699 5699 5699 5699 5699 5699 5699 5699 5698 5698 5697 5697 5696 5696 5696 5695 5695 5694 5694 5694 5693 5693 5692 5691 5690 5690 5689 5688 5687 5686
5694 5693 5693 5693 5692 5692 5691 5691 5691 5690 5690 5690 5691 5691 5690 5690 5690 5690 5689 5688 5688 5688 5687 5686 5686 5685 5685 5685 5684 5684 5683 5682 5681 5680 5680 5679 5677 5676
5684 5684 5684 5684 5683 5683 5683 5682 5682 5682 5681 5681 5681 5682 5682 5681 5681 5681 5680 5680 5679 5679 5678 5677 5677 5676 5676 5676 5675 5675 5674 5673 5672 5671 5670 5669 5668 5666
5675 5675 5675 5675 5674 5674 5673 5673 5672 5672 5672 5672 5672 5672 5673 5672 5672 5672 5671 5671 5670 5670 5669 5668 5667 5667 5666 5666 5666 5665 5664 5663 5661 5660 5659 5658 5657 5656
5665 5665 5665 5665 5664 5664 5663 5663 5663 5663 5663 5663 5663 5663 5663 5663 5663 5662 5662 5661 5661 5660 5659 5658 5657 5656 5656 5656 5655 5654 5653 5652 5651 5649 5648 5647 5647 5645
5655 5655 5655 5654 5654 5653 5653 5653 5653 5653 5653 5653 5653 5653 5653 5653 5653 5652 5652 5652 5651 5651 5650 5649 5648 5647 5646 5646 5646 5644 5642 5641 5640 5639 5637 5636 5635 5633
5645 5645 5644 5644 5644 5643 5643 5643 5643 5643 5643 5643 5643 5643 5643 5643 5643 5642 5642 5642 5641 5641 5640 5639 5638 5637 5636 5635 5635 5634 5632 5629 5628 5627 5626 5625 5623 5622
5634 5634 5634 5634 5633 5633 5633 5633 5633 5633 5633 5633 5633 5633 5632 5632 5632 5632 5631 5631 5630 5630 5629 5629 5627 5626 5625 5624 5623 5622 5621 5619 5616 5615 5613 5613 5611 5610
5623 5623 5623 5623 5623 5623 5622 5622 5622 5623 5623 5622 5622 5622 5622 5622 5622 5621 5621 5620 5619 5619 5618 5618 5616 5615 5614 5613 5612 5611 5609 5607 5605 5604 5602 5600 5599 5597